Terminal Aerodrome Forecast
Issued by NWS

Home | Current Version | Previous Version | Graphics & Text | Print | Product List | Glossary On
Versions: 1 2 3 4 5 6 7 8 9 10 11 12 13 14 15 16 17 18 19 20 21 22 23 24
000
FTUS43 KICT 191912 AAA
TAFRSL
TAF AMD
KRSL 191912Z 1919/2018 19010KT 6SM BR SCT008 BKN015
      TEMPO 1920/1924 SCT015
     FM200700 21008KT 3SM BR BKN007
     FM201600 21010KT 6SM BR BKN012=

USA.gov is the U.S. government's official web portal to all federal, state and local government web resources and services.